Overview Statistics Trail Chart Weather Telemetry Raw packets
 

This is the latest recevied weather packets stored in our database for station/object DL0BB-10. If no packets are shown the sender has not sent any weather packets the latest 10 day(s).

<< 3 4 5 6 7 8 9 >>
Time Temp. Humidity Pressure Rain* Wind** Luminosity Snow
1788605999 26.67° C 39% 1024 hPa - - - -
1788605098 27.22° C 38% 1024 hPa - - - -
1788604198 26.67° C 39% 1023.9 hPa - - - -
1788603298 26.11° C 40% 1024 hPa - - - -
1788602398 26.67° C 39% 1024 hPa - - - -
1788601498 27.22° C 38% 1024 hPa - - - -
1788600597 26.11° C 40% 1023.8 hPa - - - -
1788599697 26.11° C 39% 1023.9 hPa - - - -
1788598796 26.67° C 39% 1023.7 hPa - - - -
1788597903 26.67° C 38% 1023.7 hPa - - - -
1788597003 26.11° C 40% 1023.6 hPa - - - -
1788596103 26.11° C 40% 1023.4 hPa - - - -
1788595203 26.67° C 38% 1023.2 hPa - - - -
1788594302 26.67° C 38% 1023 hPa - - - -
1788593401 26.11° C 40% 1022.9 hPa - - - -
1788592501 26.11° C 39% 1022.9 hPa - - - -
1788591600 26.67° C 38% 1022.7 hPa - - - -
1788590700 26.67° C 39% 1022.7 hPa - - - -
1788589800 26.11° C 40% 1022.5 hPa - - - -
1788588900 26.11° C 39% 1022.4 hPa - - - -
1788587999 26.67° C 38% 1022 hPa - - - -
1788587099 26.11° C 39% 1021.8 hPa - - - -
1788586199 26.11° C 40% 1021.8 hPa - - - -
1788585299 26.67° C 39% 1021.5 hPa - - - -
1788584399 27.22° C 38% 1021.3 hPa - - - -

* Rain since midnight (hover to see other rain measurements)
** Current wind speed in m/s (hover to see current wind gust speed)